Content
SEND FEEDBACK

Daily
Averages
Monthly
Summary
United States of America

MADERA, CALIFORNIA


Home > North America > United States > California
Elevation: 253 feet     Latitude: 36 59N     Longitude: 120 06W

WEATHER
 
SELECT A DAY
Number of Records: 150,784;   Date Range: 9/2/98 - 7/20/14
 
SHARE

PRINT THIS DATA

[ ← Previous Day ]
WEATHER ALMANAC - FEBRUARY 3, 2013
[ Next Day → ]
[ °C ]   °F
Weather ElementAverageHighLow
Temperature46.8 °F62.1 °F (2:53 pm)37.9 °F (3:53 am)
Dewpoint42.3 °F48.2 °F (10:10 am)37 °F (3:53 am)
Humidity86.2 %100 % (2:10 am)53 % (2:53 pm)
Barometer30.18 in30.24 in (8:53 am)30.13 in (2:53 pm)
Wind Speed2.7 mph6.9 mph (8:53 am)
Weather ElementAverage
Visibility3.9 mi
Wind DirectionSSE (142.4 °)

Weather ElementTotal
Precipitation---
Heating Degree Days15 (Base 65)
Averaged from 34 records on February 3, 2013
WEATHER CONDITIONS BREAKOUT
WIND DIRECTION BREAKOUT
WEATHER BY HOUR - FEBRUARY 3, 2013
[ °C ]   °F
Local TimeTemperatureDewpointHumidityBarometerVisibilityWind DirectionWind SpeedGust SpeedPrecipitationEventsConditions
12:43 AM44.6 °F42.8 °F93 %30.22 in1.5 miCalmClear
12:53 AM45.0 °F43.0 °F93 %30.22 in1.5 miCalmClear
1:16 AM44.6 °F42.8 °F93 %30.22 in0.2 miCalmFogFog
1:53 AM43.0 °F41.0 °F93 %30.22 in1.0 miCalmClear
2:00 AM41.0 °F39.2 °F93 %30.21 in0.2 miCalmFogFog
2:10 AM39.2 °F39.2 °F100 %30.22 in0.2 miCalmFogFog
2:53 AM39.9 °F39.0 °F97 %30.21 in0.2 miCalmFogFog
3:53 AM37.9 °F37.0 °F97 %30.20 in0.2 miCalmFogFog
4:53 AM39.9 °F39.9 °F100 %30.20 in0.2 miCalmFogFog
5:53 AM37.9 °F37.0 °F97 %30.19 in0.2 miCalmFogFog
6:53 AM39.0 °F37.9 °F96 %30.20 in0.2 miCalmFogFog
7:53 AM42.1 °F39.9 °F92 %30.22 in0.2 miNNW (330°)5.8 mphFogFog
8:53 AM43.0 °F42.1 °F97 %30.24 in0.2 miWNW (300°)6.9 mphFogFog
9:53 AM46.0 °F46.0 °F100 %30.22 in1.8 miNW (320°)5.8 mphMostly Cloudy
10:01 AM46.4 °F46.4 °F100 %30.22 in2.5 miNW (320°)5.8 mphMostly Cloudy
10:10 AM48.2 °F48.2 °F100 %30.22 in4.0 miNNW (330°)6.9 mphPartly Cloudy
10:53 AM53.1 °F48.0 °F83 %30.22 in9.0 miVariable5.8 mphClear
11:53 AM57.0 °F46.0 °F67 %30.21 in10.0 miNNW (340°)6.9 mphClear
12:53 PM59.0 °F46.0 °F62 %30.17 in10.0 miNW (320°)6.9 mphClear
1:53 PM60.1 °F46.0 °F60 %30.14 in10.0 miCalmClear
2:53 PM62.1 °F45.0 °F53 %30.13 in10.0 miWest (280°)3.5 mphClear
3:53 PM62.1 °F46.9 °F58 %30.13 in10.0 miNW (320°)5.8 mphClear
4:53 PM59.0 °F46.0 °F62 %30.13 in10.0 miNW (320°)6.9 mphClear
5:53 PM55.0 °F44.1 °F67 %30.13 in10.0 miCalmClear
6:53 PM52.0 °F43.0 °F71 %30.14 in10.0 miCalmClear
7:53 PM46.0 °F41.0 °F83 %30.14 in7.0 miWNW (290°)5.8 mphClear
8:53 PM48.0 °F44.1 °F86 %30.16 in6.0 miNorth (360°)3.5 mphClear
9:53 PM44.1 °F42.1 °F93 %30.16 in4.0 miCalmClear
10:33 PM42.8 °F41.0 °F93 %30.16 in2.5 miSouth (190°)3.5 mphClear
10:53 PM42.1 °F39.9 °F92 %30.16 in2.0 miSW (230°)4.6 mphClear
11:17 PM42.8 °F39.2 °F87 %30.16 in1.5 miWest (270°)3.5 mphClear
11:38 PM42.8 °F41.0 °F93 %30.16 in3.0 miCalmClear
11:47 PM42.8 °F39.2 °F87 %30.16 in1.8 miCalmClear
11:53 PM42.1 °F39.9 °F92 %30.16 in2.0 miNW (320°)3.5 mphClear
Hourly data recorded from KMAE, located miles away from Madera, California







STORIES FROM OUR PARTNERS